Location: Betzi
(47.2343°N, 9.5260°E)
Time: 16:22:49
(UTC+00:00)

Thor Agena Rocket - Pass Details

Date: 27 May 2022
Orbit: 759 x 807 km, 99.0° (Epoch: 07 July)

Event Time Altitude Azimuth Distance (km) Brightness Sun altitude
Rises 01:13:58 0° 9° (N) 3,324 8.2 -16.8°
Reaches altitude 10° 01:16:23 10° 4° (N) 2,393 7.1 -16.6°
Maximum altitude 01:21:24 46° 293° (WNW) 1,079 4.2 -16.2°
Enters shadow 01:24:22 23° 232° (SW) 1,657 4.7 -15.9°
